Change the Weather History Date:

Friday, December 12, 2014

  Actual Average Record
Temperature  
Mean Temperature 52 °F -  
Max Temperature 55 °F 45 °F 60 °F (1960)
Min Temperature 48 °F 35 °F 22 °F (1972)
Degree Days  
Heating Degree Days 14    
Growing Degree Days 2 (Base 50)    
Moisture  
Dew Point 43 °F    
Average Humidity 73    
Maximum Humidity 83    
Minimum Humidity 64    
Precipitation  
Precipitation 0.00 in - - ()
Sea Level Pressure  
Sea Level Pressure 29.83 in    
Wind  
Wind Speed 10 mph (SSE)    
Max Wind Speed 18 mph    
Max Gust Speed 32 mph    
Visibility 10 miles    
Events      
Averages and records for this station are not official NWS values.
T = Trace of Precipitation, MM = Missing Value Source: NWS Daily Summary

Daily Weather History Graph

Daily Weather History Graph

Search for Another Location

Airport or City:

Trip Planner

Search our weather history database for the weather conditions in past years. The results will help you decide how hot, cold, wet, or windy it might be!

Date:

Astronomy

Dec. 12, 2014 Rise Set
Actual Time 7:48 AM PST 4:17 PM PST
Civil Twilight 7:12 AM PST 4:53 PM PST
Nautical Twilight 6:33 AM PST 5:32 PM PST
Astronomical Twilight 5:55 AM PST 6:10 PM PST
Moon 10:49 PM PST (12/12) 11:26 AM PST (12/12)
Length of Visible Light 9h 41m
Length of Day
8h 29m
Waning Gibbous, 66% of the Moon is Illuminated
Dec 12
Waning Gibbous
Dec 14
Last Quarter
Dec 21
New
Dec 28
First Quarter
Jan 4
Full

Hourly Weather History & Observations

Time (PST) Temp. Dew Point Humidity Pressure Visibility Wind Dir Wind Speed Gust Speed Precip Events Conditions
12:53 AM 53.1 °F 44.1 °F 71% 29.56 in 10.0 mi South 18.4 mph 32.2 mph 0.00 in   Mostly Cloudy
1:53 AM 53.1 °F 42.1 °F 66% 29.60 in 10.0 mi South 13.8 mph 21.9 mph 0.00 in   Scattered Clouds
2:53 AM 51.1 °F 42.1 °F 71% 29.65 in 10.0 mi SE 11.5 mph - N/A   Mostly Cloudy
3:04 AM 51.8 °F 42.8 °F 71% 29.65 in 10.0 mi SSE 11.5 mph - N/A   Mostly Cloudy
3:53 AM 51.1 °F 43.0 °F 74% 29.67 in 10.0 mi SE 9.2 mph - N/A   Mostly Cloudy
4:53 AM 51.1 °F 43.0 °F 74% 29.69 in 10.0 mi SSE 8.1 mph - N/A   Clear
5:16 AM 51.8 °F 42.8 °F 71% 29.69 in 10.0 mi SSE 9.2 mph - N/A   Mostly Cloudy
5:29 AM 51.8 °F 42.8 °F 71% 29.69 in 10.0 mi SSE 12.7 mph - N/A   Scattered Clouds
5:53 AM 51.1 °F 43.0 °F 74% 29.70 in 10.0 mi SSE 12.7 mph - N/A   Scattered Clouds
6:53 AM 52.0 °F 43.0 °F 71% 29.71 in 10.0 mi SSE 13.8 mph - N/A   Overcast
7:53 AM 52.0 °F 42.1 °F 69% 29.74 in 10.0 mi SSW 3.5 mph - N/A   Overcast
8:53 AM 52.0 °F 43.0 °F 71% 29.77 in 10.0 mi South 3.5 mph - N/A   Overcast
9:53 AM 52.0 °F 44.1 °F 74% 29.80 in 10.0 mi Variable 5.8 mph - N/A   Clear
10:53 AM 53.1 °F 45.0 °F 74% 29.81 in 10.0 mi SSE 5.8 mph - N/A   Scattered Clouds
11:53 AM 54.0 °F 45.0 °F 72% 29.82 in 10.0 mi South 9.2 mph - N/A   Scattered Clouds
12:53 PM 54.0 °F 44.1 °F 69% 29.83 in 10.0 mi SSW 6.9 mph - N/A   Mostly Cloudy
1:53 PM 55.0 °F 44.1 °F 67% 29.83 in 10.0 mi South 3.5 mph - N/A   Mostly Cloudy
2:53 PM 55.0 °F 43.0 °F 64% 29.85 in 10.0 mi South 3.5 mph - N/A   Scattered Clouds
3:53 PM 53.1 °F 43.0 °F 69% 29.88 in 10.0 mi Calm Calm - N/A   Scattered Clouds
4:53 PM 51.1 °F 42.1 °F 71% 29.91 in 10.0 mi SSE 4.6 mph - N/A   Scattered Clouds
5:53 PM 51.1 °F 43.0 °F 74% 29.93 in 10.0 mi SE 5.8 mph - N/A   Mostly Cloudy
6:53 PM 52.0 °F 44.1 °F 74% 29.95 in 10.0 mi SE 3.5 mph - 0.00 in   Overcast
7:53 PM 50.0 °F 43.0 °F 77% 29.97 in 10.0 mi SE 5.8 mph - N/A   Overcast
8:53 PM 48.0 °F 42.1 °F 80% 29.99 in 10.0 mi ESE 5.8 mph - N/A   Mostly Cloudy
9:48 PM 48.2 °F 42.8 °F 82% 30.01 in 10.0 mi Calm Calm - N/A   Mostly Cloudy
9:53 PM 48.0 °F 43.0 °F 83% 30.01 in 10.0 mi Calm Calm - N/A   Mostly Cloudy
10:44 PM 50.0 °F 42.8 °F 76% 30.04 in 10.0 mi East 5.8 mph - N/A   Overcast
10:53 PM 50.0 °F 42.1 °F 74% 30.04 in 10.0 mi East 3.5 mph - N/A   Overcast
11:05 PM 50.0 °F 42.8 °F 76% 30.05 in 10.0 mi SE 4.6 mph - N/A   Overcast
11:53 PM 48.9 °F 42.1 °F 77% 30.06 in 10.0 mi SSE 8.1 mph - N/A   Overcast